星链-5098 (STARLINK-5098 )

导读 | 豆包AI

STARLINK-5098是美国于2022年10月5日发射的星链卫星,隶属于SpaceX公司打造的星链星座项目。星链项目旨在构建全球卫星互联网星座,该卫星入轨后承担为全球范围内用户提供低延迟、高速率的宽带互联网接入服务,推动卫星互联网在通信覆盖、应急联网等领域应用落地。

基本信息
目录编号:
54013
目录名称:
STARLINK-5098
国际标识:
2022-125BB
轨道中心:
EARTH
卫星名称:
星链-5098
卫星全名:
星链-5098 (STARLINK-5098 )
卫星状态:
在轨 (已飞行1257 天)
发射日期:
2022-10-05 UTC
国别 :
美国 (US)
星等 :
--
轨道信息
数据来源 国际轨道数据 AOE轨道数据
星历时间 2026-03-14T22:12:34+0800
19小时前
查看轨道信息
2026-03-14T09:00:00+0800
1天前
查看轨道信息
半长轴 6917.866km 6917.856km
偏心率 0.0001163 0.00015
轨道倾角 53.217° 53.216°
近地点辐角 92.663° 80.662°
升交点赤经 182.069° 184.539°
平近点角 267.449° 168.195°
近地点 538.924km 538.681km
远地点 540.534km 540.757km
周期 95.437分钟 95.437分钟
每日圈数 15.088449 15.088481
详细信息
固有亮度:
5
最大亮度:
2.5
卫星平台:
Starlink v1.5
覆盖范围:
全球
运营商:
太空探索技术公司
运营商所在国:
美国
制造商(研发单位):
太空探索技术公司
制造商所在国:
美国
使用方式:
暂无
卫星简介
星链(Starlink)计划是由太空探索技术公司(SpaceX)提出的一个巨型低轨卫星互联网星座项目,计划在2019年至2024年间在太空搭建由约1.2万颗卫星组成的“星链”网络,其中1584颗将部署在地球上空550千米处的近地轨道,并从2020年开始工作。该卫星仍在工作。
2D轨道图
3D轨道图
轨道高度分析图
轨道倾角分析图
轨道综合分析图
查看轨道综合分析图